WD8EHT Weather Reports


Display with metric or nautical units.
time (UTC)temp
F
wind
direction
speed
MPH
gust
MPH
rain 1hr
in
rain 24hr
in
rain mn
in
humidity
%
barometer
mb
20260507051052 47 8 0.0 0.0 0.00 0.00 0.00 55 1011.6
20260507050549 47 339 0.0 0.0 0.00 0.00 0.00 55 1011.7
20260507050045 47 358 0.0 0.0 0.00 0.00 0.00 55 1011.6
20260507045542 47 6 0.0 0.0 0.00 0.00 0.00 56 1011.5
20260507045039 48 341 0.0 0.0 0.00 0.00 0.00 54 1011.6
20260507044536 47 344 0.0 0.0 0.00 0.00 0.00 55 1011.4
20260507044033 48 0 0.0 0.0 0.00 0.00 0.00 55 1011.5
20260507043528 47 353 0.0 0.0 0.00 0.00 0.00 54 1011.6
20260507043026 47 326 0.0 0.0 0.00 0.00 0.00 55 1011.4
20260507042522 47 353 0.0 0.0 0.00 0.00 0.00 55 1011.5
20260507042017 47 353 0.0 0.0 0.00 0.00 0.00 55 1011.5
20260507041515 47 358 0.0 0.0 0.00 0.00 0.00 54 1011.5
20260507041011 47 334 0.0 0.0 0.00 0.00 0.00 54 1011.5
20260507040508 47 2 0.0 0.0 0.00 0.00 0.00 54 1011.6
20260507040004 48 359 0.0 0.0 0.00 0.00 0.00 53 1011.4
20260507035500 48 348 0.0 0.0 0.00 0.00 0.00 53 1011.2
20260507034956 48 355 0.0 0.0 0.00 0.00 0.00 53 1011.6
20260507034453 48 11 0.0 0.0 0.00 0.00 0.00 53 1011.5
20260507033951 48 13 0.0 0.0 0.00 0.00 0.00 53 1011.5
20260507033449 48 18 0.0 0.0 0.00 0.00 0.00 51 1011.6
20260507032946 48 17 0.0 0.0 0.00 0.00 0.00 51 1011.7
20260507032443 48 10 0.0 0.0 0.00 0.00 0.00 51 1011.6
20260507031939 48 17 0.0 0.0 0.00 0.00 0.00 51 1011.6
20260507031436 48 14 0.0 0.0 0.00 0.00 0.00 51 1011.9
20260507030933 48 39 0.0 0.0 0.00 0.00 0.00 50 1011.7
20260507030430 48 21 1.0 1.0 0.00 0.00 0.00 50 1011.8
20260507025927 48 324 1.0 1.0 0.00 0.00 0.00 50 1011.9
20260507025424 49 15 0.0 0.0 0.00 0.00 0.00 52 1011.9
20260507024922 49 7 0.0 0.0 0.00 0.00 0.00 51 1011.9
20260507024419 49 328 0.0 0.0 0.00 0.00 0.00 49 1011.5
20260507023915 49 12 0.0 0.0 0.00 0.00 0.00 49 1011.8
20260507023412 49 253 0.0 1.0 0.00 0.00 0.00 49 1011.6
20260507022909 49 0 0.0 0.0 0.00 0.00 0.00 48 1011.6
20260507022405 49 1 0.0 0.0 0.00 0.00 0.00 49 1011.7
20260507021901 49 24 0.0 0.0 0.00 0.00 0.00 49 1011.7
20260507021356 49 357 0.0 0.0 0.00 0.00 0.00 48 1011.7
20260507020855 49 12 1.0 1.0 0.00 0.00 0.00 47 1011.5
20260507020351 49 341 0.0 0.0 0.00 0.00 0.00 48 1011.5
20260507015848 49 351 0.0 0.0 0.00 0.00 0.00 48 1011.6
20260507015346 49 304 0.0 0.0 0.00 0.00 0.00 47 1011.5
20260507014843 50 6 0.0 0.0 0.00 0.00 0.00 47 1011.4
20260507014339 50 51 1.0 1.0 0.00 0.00 0.00 46 1011.3
20260507013836 50 0 0.0 1.0 0.00 0.00 0.00 46 1011.4
20260507013333 50 3 1.0 1.0 0.00 0.00 0.00 47 1011.4
20260507012831 50 3 0.0 1.0 0.00 0.00 0.00 48 1011.3
20260507012326 50 25 0.0 0.0 0.00 0.00 0.00 47 1011.2
20260507011823 50 1 0.0 0.0 0.00 0.00 0.00 46 1011.2
20260507011320 50 6 0.0 0.0 0.00 0.00 0.00 47 1011.2
20260507010820 50 7 0.0 0.0 0.00 0.00 0.00 46 1011.3
20260507010315 50 356 0.0 0.0 0.00 0.00 0.00 46 1011.2
20260507005813 50 7 0.0 0.0 0.00 0.00 0.00 46 1011.2
20260507005310 50 356 0.0 0.0 0.00 0.00 0.00 46 1011.3
20260507004807 50 346 0.0 0.0 0.00 0.00 0.00 46 1011.1
20260507004304 50 356 0.0 0.0 0.00 0.00 0.00 46 1011.1
20260507003801 50 5 0.0 0.0 0.00 0.00 0.00 44 1010.8
20260507003255 51 10 0.0 0.0 0.00 0.00 0.00 44 1011.0
20260507002751 51 28 0.0 0.0 0.00 0.00 0.00 43 1011.3
20260507002248 51 359 0.0 0.0 0.00 0.00 0.00 43 1011.3
20260507001745 51 11 0.0 0.0 0.00 0.00 0.00 43 1011.1
20260507001242 51 304 1.0 1.0 0.00 0.00 0.00 43 1011.1
20260507000738 51 18 1.0 2.0 0.00 0.00 0.00 43 1011.0
20260507000234 51 35 0.0 0.0 0.00 0.00 0.00 43 1011.0
20260506235731 51 324 1.0 2.0 0.00 0.00 0.00 42 1011.0
20260506235227 51 346 3.0 5.0 0.00 0.00 0.00 41 1011.0
20260506234723 52 357 1.0 2.0 0.00 0.00 0.00 41 1010.8
20260506234221 52 344 3.0 5.0 0.00 0.00 0.00 41 1010.8
20260506233719 52 337 1.0 1.0 0.00 0.00 0.00 41 1010.8
20260506233215 52 33 2.0 2.0 0.00 0.00 0.00 40 1010.9
20260506232711 52 14 2.0 2.0 0.00 0.00 0.00 40 1011.0
20260506232206 52 307 0.0 0.0 0.00 0.00 0.00 42 1011.0
20260506231704 52 69 3.0 3.0 0.00 0.00 0.00 40 1010.8
20260506231203 52 354 3.0 6.0 0.00 0.00 0.00 39 1010.8
20260506230658 52 40 3.0 5.0 0.00 0.00 0.00 40 1010.8
20260506230155 52 12 3.0 3.0 0.00 0.00 0.00 40 1010.9
20260506225652 53 332 0.0 1.0 0.00 0.00 0.00 40 1011.1
20260506225149 52 13 0.0 1.0 0.00 0.00 0.00 41 1010.9
20260506224645 53 351 2.0 3.0 0.00 0.00 0.00 39 1011.0
20260506224142 53 15 2.0 2.0 0.00 0.00 0.00 40 1010.8
20260506223639 53 59 4.0 5.0 0.00 0.00 0.00 39 1011.0
20260506223134 53 68 6.0 7.0 0.00 0.00 0.00 38 1011.0
20260506222632 53 9 4.0 5.0 0.00 0.00 0.00 39 1010.7
20260506222128 53 334 2.0 3.0 0.00 0.00 0.00 40 1010.7
20260506221626 53 10 1.0 1.0 0.00 0.00 0.00 39 1010.7
20260506221123 53 329 2.0 2.0 0.00 0.00 0.00 39 1010.9
20260506220620 55 324 2.0 3.0 0.00 0.00 0.00 37 1011.0
20260506220115 54 311 1.0 2.0 0.00 0.00 0.00 38 1010.7
20260506215612 54 35 4.0 6.0 0.00 0.00 0.00 39 1010.8
20260506215107 55 33 3.0 5.0 0.00 0.00 0.00 37 1010.7
20260506214605 55 337 2.0 2.0 0.00 0.00 0.00 39 1010.8
20260506214102 55 348 3.0 6.0 0.00 0.00 0.00 38 1011.0
20260506213600 54 63 5.0 6.0 0.00 0.00 0.00 37 1010.6
20260506213057 54 16 3.0 3.0 0.00 0.00 0.00 39 1010.6
20260506212554 54 342 2.0 3.0 0.00 0.00 0.00 39 1010.7
20260506212048 54 15 3.0 5.0 0.00 0.00 0.00 39 1010.7
20260506211545 54 20 1.0 2.0 0.00 0.00 0.00 41 1010.6
20260506211042 53 6 2.0 2.0 0.00 0.00 0.00 41 1010.5
20260506210538 53 305 1.0 2.0 0.00 0.00 0.00 43 1010.6
20260506210035 53 322 1.0 3.0 0.00 0.00 0.00 42 1010.9
20260506205532 55 334 2.0 3.0 0.00 0.00 0.00 40 1010.6
20260506205027 54 3 2.0 2.0 0.00 0.00 0.00 41 1010.6
20260506204525 54 19 5.0 6.0 0.00 0.00 0.00 40 1010.8
20260506204022 54 34 3.0 3.0 0.00 0.00 0.00 40 1010.7
20260506203520 55 10 3.0 3.0 0.00 0.00 0.00 40 1010.7
20260506203016 56 24 3.0 5.0 0.00 0.00 0.00 38 1010.8
20260506202514 54 55 2.0 6.0 0.00 0.00 0.00 40 1010.7
20260506202010 54 40 1.0 2.0 0.00 0.00 0.00 40 1010.7
20260506201508 53 355 1.0 2.0 0.00 0.00 0.00 42 1010.7
20260506201004 53 30 1.0 2.0 0.00 0.00 0.00 42 1010.7
20260506200501 52 254 0.0 0.0 0.00 0.00 0.00 42 1010.8
20260506195957 54 7 3.0 5.0 0.00 0.00 0.00 41 1011.1
20260506195455 54 75 2.0 2.0 0.00 0.00 0.00 42 1010.9
20260506194950 54 20 2.0 2.0 0.00 0.00 0.00 41 1010.8
20260506194448 53 37 0.0 1.0 0.00 0.00 0.00 43 1010.6
20260506193944 53 351 1.0 2.0 0.00 0.00 0.00 40 1010.8
20260506193442 53 319 3.0 3.0 0.00 0.00 0.00 42 1011.1
20260506192938 53 15 1.0 2.0 0.00 0.00 0.00 43 1011.1
20260506192436 53 15 1.0 1.0 0.00 0.00 0.00 42 1010.9
20260506191932 53 348 2.0 2.0 0.00 0.00 0.00 42 1011.1
20260506191429 53 0 0.0 1.0 0.00 0.00 0.00 42 1011.2
20260506190925 54 39 2.0 2.0 0.00 0.00 0.00 42 1011.0
20260506190422 55 344 3.0 3.0 0.00 0.00 0.00 41 1010.9
20260506185919 54 16 0.0 0.0 0.00 0.00 0.00 44 1011.0
20260506185416 54 5 2.0 2.0 0.00 0.00 0.00 41 1011.1
20260506184913 53 30 1.0 2.0 0.00 0.00 0.00 44 1011.1
20260506184410 53 26 3.0 3.0 0.00 0.00 0.00 43 1011.2
20260506183908 53 30 2.0 2.0 0.00 0.00 0.00 45 1011.3
20260506183402 53 37 0.0 0.0 0.00 0.00 0.00 43 1011.2
20260506182900 56 325 4.0 6.0 0.00 0.00 0.00 40 1011.0
20260506182357 57 28 2.0 2.0 0.00 0.00 0.00 42 1010.9
20260506181854 55 7 2.0 2.0 0.00 0.00 0.00 42 1010.9
20260506181352 54 135 0.0 0.0 0.00 0.00 0.00 47 1011.0
20260506180849 52 51 3.0 5.0 0.00 0.00 0.00 45 1011.1
20260506180345 53 12 2.0 2.0 0.00 0.00 0.00 44 1011.0
20260506175842 54 49 0.0 1.0 0.00 0.00 0.00 45 1011.1
20260506175338 53 82 2.0 3.0 0.00 0.00 0.00 44 1011.2
20260506174835 51 3 0.0 0.0 0.00 0.00 0.00 48 1011.2
20260506174333 52 356 5.0 7.0 0.00 0.00 0.00 46 1011.2
20260506173831 53 335 2.0 3.0 0.00 0.00 0.00 47 1011.5
20260506173327 52 308 1.0 1.0 0.00 0.00 0.00 48 1011.4
20260506172824 51 359 1.0 1.0 0.00 0.00 0.00 46 1011.4
20260506172321 51 22 1.0 2.0 0.00 0.00 0.00 46 1011.4
20260506171818 52 32 3.0 5.0 0.00 0.00 0.00 45 1011.7
20260506171315 53 21 1.0 2.0 0.00 0.00 0.00 45 1011.6
20260506170813 55 29 3.0 3.0 0.00 0.00 0.00 42 1011.8
20260506170309 52 27 0.0 1.0 0.00 0.00 0.00 44 1011.6
20260506165808 53 349 3.0 3.0 0.00 0.00 0.00 43 1011.6
20260506165306 52 359 1.0 5.0 0.00 0.00 0.00 44 1011.7
20260506164802 52 349 3.0 3.0 0.00 0.00 0.00 45 1011.5
20260506164258 53 84 2.0 3.0 0.00 0.00 0.00 43 1011.4
20260506163755 53 17 1.0 1.0 0.00 0.00 0.00 43 1011.7
20260506163250 52 354 0.0 0.0 0.00 0.00 0.00 46 1011.6
20260506162746 51 5 0.0 0.0 0.00 0.00 0.00 48 1011.5
20260506162244 52 352 2.0 2.0 0.00 0.00 0.00 46 1011.5
20260506161741 52 355 2.0 2.0 0.00 0.00 0.00 46 1011.8
20260506161238 52 353 2.0 2.0 0.00 0.00 0.00 46 1011.6
20260506160736 52 28 1.0 1.0 0.00 0.00 0.00 47 1011.7
20260506160232 52 349 1.0 1.0 0.00 0.00 0.00 48 1011.8
20260506155731 51 344 1.0 2.0 0.00 0.00 0.00 48 1011.8
20260506155228 50 342 1.0 1.0 0.00 0.00 0.00 49 1011.8
20260506153335 50 349 1.0 1.0 0.00 0.00 0.00 52 1011.6
20260506152832 51 143 2.0 3.0 0.00 0.00 0.00 50 1011.5
20260506152329 51 2 1.0 2.0 0.00 0.00 0.00 55 1011.5
20260506151828 50 33 0.0 0.0 0.00 0.00 0.00 58 1011.3
20260506151324 50 7 2.0 2.0 0.00 0.00 0.00 58 1011.3
20260506150821 50 175 0.0 1.0 0.00 0.00 0.00 56 1011.5
20260506150318 50 312 1.0 1.0 0.00 0.00 0.00 50 1011.5
20260506145815 49 17 1.0 2.0 0.00 0.00 0.00 54 1011.6
20260506145311 51 350 5.0 5.0 0.00 0.00 0.00 52 1011.4
20260506144809 50 8 2.0 3.0 0.00 0.00 0.00 53 1011.5
20260506144305 50 163 1.0 2.0 0.00 0.00 0.00 56 1011.3
20260506143803 49 3 3.0 3.0 0.00 0.00 0.00 55 1011.5
20260506143300 49 287 1.0 1.0 0.00 0.00 0.00 57 1011.2
20260506142758 48 6 1.0 2.0 0.00 0.00 0.00 56 1011.2
20260506142256 48 110 2.0 2.0 0.00 0.00 0.00 58 1011.0
20260506141754 49 16 0.0 0.0 0.00 0.00 0.00 56 1011.0
20260506141252 49 145 1.0 1.0 0.00 0.00 0.00 58 1011.0
20260506140749 49 17 2.0 2.0 0.00 0.00 0.00 55 1010.7
20260506140246 50 5 3.0 3.0 0.00 0.00 0.00 55 1010.8
20260506135743 49 19 0.0 0.0 0.00 0.00 0.00 56 1010.8
20260506135239 48 302 0.0 1.0 0.00 0.00 0.00 59 1010.8
20260506134736 49 7 1.0 1.0 0.00 0.00 0.00 55 1010.7
20260506134233 50 11 0.0 0.0 0.00 0.00 0.00 56 1010.8
20260506133730 49 8 0.0 0.0 0.00 0.00 0.00 56 1010.7
20260506133226 47 26 1.0 2.0 0.00 0.00 0.00 59 1010.8
20260506132723 47 336 2.0 2.0 0.00 0.00 0.00 61 1010.6
20260506132221 47 357 2.0 3.0 0.00 0.00 0.00 58 1010.8
20260506131719 47 28 0.0 1.0 0.00 0.00 0.00 58 1010.6
20260506131214 47 358 2.0 2.0 0.00 0.00 0.00 59 1010.5
20260506130711 47 17 1.0 2.0 0.00 0.00 0.00 60 1010.5
20260506130208 46 20 0.0 1.0 0.00 0.00 0.00 59 1010.4
20260506125706 46 15 1.0 1.0 0.00 0.00 0.00 59 1010.6
20260506125204 46 27 1.0 1.0 0.00 0.00 0.00 59 1010.4
20260506124702 47 18 0.0 1.0 0.00 0.00 0.00 58 1010.4
20260506124200 46 4 0.0 1.0 0.00 0.00 0.00 59 1010.3
20260506123657 46 35 0.0 0.0 0.00 0.00 0.00 59 1010.1
20260506123155 45 7 1.0 1.0 0.00 0.00 0.00 61 1010.1
20260506122652 45 14 0.0 0.0 0.00 0.00 0.00 60 1010.0
20260506122149 45 9 1.0 2.0 0.00 0.00 0.00 61 1010.0
20260506121647 44 14 1.0 1.0 0.00 0.00 0.00 62 1009.7
20260506121143 44 359 0.0 1.0 0.00 0.00 0.00 62 1010.0
20260506120641 43 9 0.0 1.0 0.00 0.00 0.00 63 1009.6
20260506120138 44 14 0.0 1.0 0.00 0.00 0.00 64 1009.6
20260506115637 43 26 0.0 0.0 0.00 0.00 0.00 65 1009.5
20260506115134 42 5 0.0 0.0 0.00 0.00 0.00 65 1009.7
20260506114631 42 10 1.0 2.0 0.00 0.00 0.00 66 1009.4
20260506114129 42 6 3.0 3.0 0.00 0.00 0.00 66 1009.4
20260506113628 42 13 0.0 0.0 0.00 0.00 0.00 68 1009.2
20260506113124 41 11 0.0 0.0 0.00 0.00 0.00 67 1009.2
20260506112621 41 12 0.0 1.0 0.00 0.00 0.00 67 1009.1
20260506112118 41 358 0.0 0.0 0.00 0.00 0.00 68 1009.3
20260506111616 41 3 0.0 0.0 0.00 0.00 0.00 69 1009.1
20260506111113 41 8 0.0 0.0 0.00 0.00 0.00 69 1008.9
20260506110611 41 14 0.0 0.0 0.00 0.00 0.00 68 1009.1
20260506110108 41 23 0.0 0.0 0.00 0.00 0.00 69 1008.8
20260506105604 41 345 0.0 0.0 0.00 0.00 0.00 69 1009.0
20260506105101 41 12 0.0 0.0 0.00 0.00 0.00 69 1008.9
20260506104559 41 359 0.0 0.0 0.00 0.00 0.00 69 1008.9
20260506104057 41 10 0.0 0.0 0.00 0.00 0.00 70 1008.6
20260506103554 41 16 0.0 0.0 0.00 0.00 0.00 69 1008.5
20260506103050 41 340 0.0 0.0 0.00 0.00 0.00 69 1008.5
20260506102549 41 13 0.0 0.0 0.00 0.00 0.00 68 1008.6
20260506102046 41 352 0.0 0.0 0.00 0.00 0.00 68 1008.6
20260506101542 41 316 0.0 0.0 0.00 0.00 0.00 68 1008.5
20260506101040 41 16 0.0 0.0 0.00 0.00 0.00 68 1008.5
20260506100538 41 0 0.0 0.0 0.00 0.00 0.00 68 1008.6
20260506100035 41 13 0.0 0.0 0.00 0.00 0.00 68 1008.4
20260506095534 42 3 0.0 0.0 0.00 0.00 0.00 68 1008.2
20260506095030 42 7 0.0 0.0 0.00 0.00 0.00 68 1008.1
20260506094528 42 23 0.0 0.0 0.00 0.00 0.00 67 1008.3
20260506094026 42 10 0.0 0.0 0.00 0.00 0.00 66 1007.9
20260506093524 43 16 0.0 0.0 0.00 0.00 0.00 64 1007.9
20260506093021 43 10 0.0 0.0 0.00 0.00 0.00 65 1007.8
20260506092519 43 11 0.0 0.0 0.00 0.00 0.00 64 1008.0
20260506092015 43 10 0.0 0.0 0.00 0.00 0.00 64 1007.9
20260506091514 43 330 0.0 0.0 0.00 0.00 0.00 64 1007.7
20260506091010 43 13 0.0 0.0 0.00 0.00 0.00 64 1007.6
20260506090509 43 3 0.0 0.0 0.00 0.00 0.00 63 1007.6
20260506090004 43 10 0.0 0.0 0.00 0.00 0.00 62 1007.4
20260506085501 44 12 0.0 0.0 0.00 0.00 0.00 63 1007.8
20260506084958 44 4 0.0 0.0 0.00 0.00 0.00 62 1007.8
20260506084455 44 10 0.0 0.0 0.00 0.00 0.00 62 1007.9
20260506083951 44 29 0.0 1.0 0.00 0.00 0.00 61 1007.9
20260506083448 44 7 0.0 1.0 0.00 0.00 0.00 62 1007.6
20260506082945 44 49 0.0 0.0 0.00 0.00 0.00 62 1007.7
20260506082442 44 21 0.0 1.0 0.00 0.00 0.00 61 1008.0
20260506081938 44 0 1.0 1.0 0.00 0.00 0.00 60 1007.7
20260506081437 44 21 0.0 1.0 0.00 0.00 0.00 61 1007.8
20260506080933 44 5 0.0 0.0 0.00 0.00 0.00 60 1007.6
20260506080430 44 1 0.0 0.0 0.00 0.00 0.00 61 1008.0
20260506073414 45 7 0.0 0.0 0.00 0.00 0.00 59 1007.9
20260506072911 45 0 1.0 2.0 0.00 0.00 0.00 58 1008.0
20260506072408 45 0 0.0 0.0 0.00 0.00 0.00 59 1008.0
20260506071906 45 30 0.0 0.0 0.00 0.00 0.00 58 1007.6
20260506071404 45 347 1.0 1.0 0.00 0.00 0.00 58 1007.7
20260506070901 45 3 2.0 2.0 0.00 0.00 0.00 59 1008.0
20260506070357 46 14 1.0 1.0 0.00 0.00 0.00 58 1007.9
20260506062335 46 46 0.0 0.0 0.00 0.00 0.00 57 1007.7
20260506061831 46 346 0.0 0.0 0.00 0.00 0.00 58 1007.6
20260506061328 46 310 1.0 2.0 0.00 0.00 0.00 57 1008.0
20260506060826 47 22 1.0 1.0 0.00 0.00 0.00 57 1007.9
20260506060323 47 332 0.0 0.0 0.00 0.00 0.00 57 1008.0
20260506051255 47 26 0.0 0.0 0.00 0.00 0.00 58 1007.5